KF5PJP Weather Reports


time (UTC)temp
F
wind
direction
speed
knots
gust
knots
rain 1hr
in
rain 24hr
in
rain mn
in
humidity
%
barometer
mb
20260509173417 83 79 0.9 2.6 0.00 0.00 0.00 71 1010.0
20260509171917 83 97 0.0 2.6 0.00 0.00 0.00 73 1010.1
20260509170918 81 104 0.0 2.6 0.00 0.00 0.00 76 1009.9
20260509165904 81 98 0.0 2.6 0.00 0.00 0.00 76 1009.9
20260509165430 81 98 0.0 2.6 0.00 0.00 0.00 75 1010.0
20260509164851 81 96 0.0 2.6 0.00 0.00 0.00 76 1010.0
20260509164415 82 72 0.9 3.5 0.00 0.00 0.00 74 1010.0
20260509163410 82 121 0.0 0.0 0.00 0.00 0.00 74 1010.0
20260509162931 81 99 0.0 3.5 0.00 0.00 0.00 76 1009.9
20260509162414 81 99 0.9 3.5 0.00 0.00 0.00 74 1010.0
20260509161929 82 91 0.9 3.5 0.00 0.00 0.00 73 1010.0
20260509160905 81 107 0.9 2.6 0.00 0.00 0.00 74 1009.8
20260509155921 80 120 0.9 1.7 0.00 0.00 0.00 77 1009.9
20260509155457 79 109 0.0 1.7 0.00 0.00 0.00 80 1009.9
20260509154911 79 88 0.0 0.0 0.00 0.00 0.00 80 1009.9
20260509153916 79 78 0.0 0.0 0.00 0.00 0.00 83 1009.9
20260509153428 78 273 0.0 0.0 0.00 0.00 0.00 85 1009.9
20260509152416 76 124 0.0 2.6 0.00 0.00 0.00 90 1009.8
20260509151943 75 86 0.0 2.6 0.00 0.00 0.00 90 1009.7
20260509150922 74 105 0.0 0.0 0.00 0.00 0.00 92 1009.9
20260509150429 74 102 0.0 0.0 0.00 0.00 0.00 92 1009.9
20260509145933 73 102 0.0 0.0 0.00 0.00 0.00 92 1010.0
20260509144454 73 102 0.0 0.0 0.00 0.00 0.00 92 1010.2
20260509144001 73 102 0.0 0.0 0.00 0.00 0.00 92 1010.2
20260509142937 73 102 0.0 0.0 0.00 0.00 0.00 92 1010.3
20260509142350 73 102 0.0 0.0 0.00 0.00 0.00 92 1010.3
20260509141402 73 102 0.0 0.0 0.00 0.00 0.00 92 1010.3
20260509140412 72 113 0.0 0.9 0.00 0.00 0.00 92 1010.2
20260509135949 72 113 0.0 1.7 0.00 0.00 0.00 92 1010.2
20260509135352 72 96 0.9 1.7 0.00 0.00 0.00 92 1010.1
20260509134922 72 98 0.0 1.7 0.00 0.00 0.00 93 1010.1
20260509133916 72 136 0.0 0.9 0.00 0.00 0.00 93 1010.0
20260509133428 72 90 0.0 0.9 0.00 0.00 0.00 94 1010.0
20260509132411 72 90 0.0 1.7 0.00 0.00 0.00 94 1009.9
20260509131924 71 91 0.0 0.0 0.00 0.00 0.00 94 1010.1
20260509130850 71 91 0.0 1.7 0.00 0.00 0.00 94 1010.2
20260509130420 71 82 0.0 0.9 0.00 0.00 0.00 94 1010.1
20260509125422 71 82 0.0 1.7 0.00 0.00 0.00 95 1010.0
20260509124400 71 80 0.9 1.7 0.00 0.00 0.00 94 1009.9
20260509123935 71 60 0.0 1.7 0.00 0.00 0.00 94 1009.9
20260509122906 70 79 0.0 3.5 0.00 0.00 0.00 94 1010.0
20260509122436 70 78 0.0 3.5 0.00 0.00 0.00 94 1009.9
20260509121853 70 82 0.0 1.7 0.00 0.00 0.00 94 1009.8
20260509120901 70 81 0.0 0.9 0.00 0.00 0.00 94 1009.5
20260509120443 70 81 0.0 0.0 0.00 0.00 0.00 94 1009.2
20260509115418 70 80 0.0 0.0 0.00 0.00 0.00 94 1009.3
20260509114944 70 80 0.0 0.9 0.00 0.00 0.00 94 1009.3
20260509114358 70 80 0.0 0.9 0.00 0.00 0.00 94 1009.2
20260509113413 70 80 0.0 1.7 0.00 0.00 0.00 94 1009.3
20260509112412 70 93 0.0 1.7 0.00 0.00 0.00 94 1008.9
20260509111856 70 94 0.0 1.7 0.00 0.00 0.00 94 1008.8
20260509111424 70 98 0.0 1.7 0.00 0.00 0.00 94 1008.7
20260509110912 70 98 0.0 1.7 0.00 0.00 0.00 94 1008.6
20260509105928 70 211 0.0 0.0 0.00 0.00 0.00 94 1008.2
20260509104909 70 297 0.0 0.0 0.00 0.00 0.00 94 1008.1
20260509103855 70 297 0.0 0.0 0.00 0.00 0.00 94 1008.3
20260509103405 70 101 0.0 0.0 0.00 0.00 0.00 94 1008.4
20260509102418 70 101 0.0 0.9 0.00 0.00 0.00 94 1008.6
20260509101420 70 117 0.0 0.0 0.00 0.00 0.00 94 1008.5
20260509100959 70 117 0.0 0.0 0.00 0.00 0.00 93 1008.6
20260509100409 70 117 0.0 0.0 0.00 0.00 0.00 93 1008.7
20260509095939 70 117 0.0 0.9 0.00 0.00 0.00 93 1008.8
20260509095349 70 117 0.0 1.7 0.00 0.00 0.00 93 1008.8
20260509094915 70 117 0.0 3.5 0.00 0.00 0.00 93 1009.1
20260509094456 70 100 0.0 0.9 0.00 0.00 0.00 93 1009.1
20260509093857 70 100 0.0 0.9 0.00 0.00 0.00 93 1009.0
20260509093431 70 113 0.0 0.0 0.00 0.00 0.00 93 1009.1
20260509092422 70 130 0.0 0.9 0.00 0.00 0.00 93 1009.1
20260509091945 70 138 0.0 0.9 0.00 0.00 0.00 92 1009.2
20260509091433 70 142 0.0 0.0 0.00 0.00 0.00 92 1009.0
20260509090418 70 142 0.0 0.0 0.00 0.00 0.00 92 1008.8
20260509085413 70 142 0.0 0.9 0.00 0.00 0.00 92 1008.9
20260509084409 70 228 0.0 1.7 0.00 0.00 0.00 91 1008.9
20260509083359 70 257 0.0 0.0 0.00 0.00 0.00 91 1008.9
20260509082411 70 257 0.0 0.0 0.00 0.00 0.00 91 1009.4
20260509081407 70 259 0.0 0.0 0.00 0.00 0.00 90 1009.7
20260509080417 70 259 0.0 0.0 0.00 0.00 0.00 90 1009.5
20260509075947 70 259 0.0 0.0 0.00 0.00 0.00 90 1009.6
20260509075411 70 259 0.0 0.0 0.00 0.00 0.00 90 1009.9
20260509074406 70 259 0.0 0.0 0.00 0.00 0.00 90 1010.1
20260509073940 70 259 0.0 0.0 0.00 0.00 0.00 90 1010.2
20260509073403 70 259 0.0 0.0 0.00 0.00 0.00 90 1010.1
20260509072433 70 260 0.0 0.0 0.00 0.00 0.00 89 1010.1
20260509071959 70 259 0.0 0.0 0.00 0.00 0.00 89 1010.1
20260509071405 70 259 0.0 0.0 0.00 0.00 0.00 89 1010.0
20260509070922 70 259 0.0 0.0 0.00 0.00 0.00 89 1010.0
20260509065853 70 257 0.0 0.9 0.00 0.00 0.00 89 1010.1
20260509065412 70 265 0.0 0.9 0.00 0.00 0.00 89 1010.0
20260509064935 70 246 0.0 0.9 0.00 0.00 0.00 89 1009.9
20260509064415 70 212 0.0 1.7 0.00 0.00 0.00 88 1010.1
20260509063851 71 212 0.0 1.7 0.00 0.00 0.00 88 1009.7
20260509063352 71 275 0.9 1.7 0.00 0.00 0.00 88 1009.2
20260509062905 71 279 0.0 0.9 0.00 0.00 0.00 88 1009.6
20260509062349 71 279 0.0 0.9 0.00 0.00 0.00 87 1010.1
20260509061849 71 256 0.9 0.9 0.00 0.00 0.00 87 1010.0
20260509061419 71 224 0.0 1.7 0.00 0.00 0.00 87 1010.0
20260509060859 71 258 0.0 1.7 0.00 0.00 0.00 87 1010.1
20260509060411 71 245 0.0 0.0 0.00 0.00 0.00 87 1010.4
20260509055853 71 267 0.0 0.0 0.00 0.00 0.00 87 1010.6
20260509055409 71 267 0.0 0.0 0.00 0.00 0.00 87 1010.7
20260509054913 71 268 0.0 0.0 0.00 0.00 0.00 86 1010.8
20260509054417 71 267 0.0 0.9 0.00 0.00 0.00 86 1010.8
20260509053915 71 267 0.0 0.9 0.00 0.00 0.00 86 1010.8
20260509053403 72 271 0.0 0.0 0.00 0.00 0.00 86 1010.9
20260509052912 72 271 0.0 0.0 0.00 0.00 0.00 86 1010.9
20260509052432 72 271 0.0 1.7 0.00 0.00 0.00 86 1010.9
20260509051901 72 271 0.0 1.7 0.00 0.00 0.00 86 1010.7
20260509051358 72 267 0.0 0.0 0.00 0.00 0.00 86 1010.7
20260509050855 72 267 0.0 0.0 0.00 0.00 0.00 86 1010.7
20260509050356 72 266 0.0 0.0 0.00 0.00 0.00 86 1010.6
20260509045923 72 266 0.0 0.9 0.00 0.00 0.00 86 1010.5
20260509045448 72 267 0.0 0.9 0.00 0.00 0.00 86 1010.4
20260509044907 72 265 0.0 0.9 0.00 0.00 0.00 86 1010.3
20260509043903 72 261 0.0 0.9 0.00 0.00 0.00 85 1010.1
20260509043426 72 261 0.0 0.9 0.00 0.00 0.00 85 1010.1
20260509042416 72 248 0.0 0.9 0.00 0.00 0.00 85 1010.0
20260509041414 72 273 0.0 0.0 0.00 0.00 0.00 85 1009.9
20260509040431 72 273 0.0 0.0 0.00 0.00 0.00 84 1009.8
20260509035946 72 273 0.0 0.0 0.00 0.00 0.00 84 1009.7
20260509035355 72 273 0.0 0.9 0.00 0.00 0.00 84 1009.6
20260509034359 72 257 0.0 0.9 0.00 0.00 0.00 84 1009.6
20260509033922 72 271 0.0 0.0 0.00 0.00 0.00 83 1009.7
20260509032913 73 273 0.0 0.9 0.00 0.00 0.00 83 1009.7
20260509032416 73 273 0.0 0.9 0.00 0.00 0.00 83 1009.7
20260509031942 73 288 0.0 1.7 0.00 0.00 0.00 83 1009.7
20260509031347 73 288 0.0 1.7 0.00 0.00 0.00 83 1009.5
20260509030415 73 237 0.0 0.0 0.00 0.00 0.00 82 1009.4
20260509025422 73 264 0.0 0.0 0.00 0.00 0.00 82 1009.3
20260509024941 73 269 0.0 0.9 0.00 0.00 0.00 81 1009.1
20260509023901 73 261 0.0 0.0 0.00 0.00 0.00 81 1009.0
20260509023426 73 277 0.0 1.7 0.00 0.00 0.00 81 1009.0
20260509022931 73 292 0.0 1.7 0.00 0.00 0.00 80 1008.9
20260509022350 73 207 0.0 0.9 0.00 0.00 0.00 80 1008.9
20260509021928 73 211 0.0 0.9 0.00 0.00 0.00 80 1008.8
20260509021440 73 211 0.0 0.9 0.00 0.00 0.00 80 1008.7
20260509020855 73 269 0.0 0.9 0.00 0.00 0.00 80 1008.6
20260509015852 73 265 0.0 0.9 0.00 0.00 0.00 79 1008.6
20260509015422 73 267 0.0 0.9 0.00 0.00 0.00 79 1008.6
20260509014937 73 202 0.0 0.0 0.00 0.00 0.00 78 1008.5
20260509014408 74 202 0.0 1.7 0.00 0.00 0.00 78 1008.4
20260509013944 74 202 0.0 1.7 0.00 0.00 0.00 78 1008.3
20260509013403 74 252 0.0 0.9 0.00 0.00 0.00 78 1008.3
20260509012941 74 248 0.0 0.0 0.00 0.00 0.00 77 1008.3
20260509011905 74 249 0.0 0.0 0.00 0.00 0.00 77 1008.1
20260509010908 74 278 0.0 2.6 0.00 0.00 0.00 76 1008.1
20260509005912 75 250 0.0 0.0 0.00 0.00 0.00 76 1007.9
20260509004907 75 307 0.0 1.7 0.00 0.00 0.00 75 1007.9
20260509004447 75 307 0.0 1.7 0.00 0.00 0.00 75 1008.0
20260509003850 75 259 0.0 0.9 0.00 0.00 0.00 74 1008.0
20260509002914 76 248 0.0 0.0 0.00 0.00 0.00 72 1008.0
20260509001911 77 279 0.0 0.0 0.00 0.00 0.00 71 1007.9
20260509000909 77 279 0.0 0.9 0.00 0.00 0.00 70 1007.9
20260509000440 78 215 0.0 0.0 0.00 0.00 0.00 70 1007.8
20260508235426 77 274 0.0 4.3 0.00 0.00 0.00 70 1007.7
20260508234411 77 248 0.0 2.6 0.00 0.00 0.00 70 1007.7
20260508233413 78 211 0.9 2.6 0.00 0.00 0.00 67 1007.6
20260508232411 78 290 0.9 3.5 0.00 0.00 0.00 67 1007.9
20260508231403 78 223 0.0 5.2 0.00 0.00 0.00 67 1007.9
20260508230421 78 290 0.9 2.6 0.00 0.00 0.00 66 1008.1
20260508225408 78 274 0.9 1.7 0.00 0.00 0.00 65 1008.6
20260508224420 78 265 0.0 0.9 0.00 0.00 0.00 65 1009.0
20260508223411 79 265 0.0 0.9 0.00 0.00 0.00 64 1008.9
20260508222947 79 265 0.0 1.7 0.00 0.00 0.00 63 1008.8
20260508222415 79 259 0.0 1.7 0.00 0.00 0.00 64 1009.0
20260508221938 79 272 0.0 1.7 0.00 0.00 0.00 63 1009.0
20260508221405 79 298 0.9 1.7 0.00 0.00 0.00 64 1008.9
20260508220930 80 280 0.9 1.7 0.00 0.00 0.00 61 1008.6
20260508215918 80 145 0.0 0.9 0.00 0.00 0.00 62 1008.8
20260508215444 79 52 0.0 1.7 0.00 0.00 0.00 64 1008.8
20260508214416 79 91 0.9 2.6 0.00 0.00 0.00 61 1009.4
20260508213408 80 86 0.0 2.6 0.00 0.00 0.00 61 1009.3
20260508212423 81 292 0.0 1.7 0.00 0.00 0.00 60 1009.1
20260508211848 81 279 0.9 1.7 0.00 0.00 0.00 61 1009.0
20260508211418 81 277 0.0 1.7 0.00 0.00 0.00 60 1009.1
20260508210406 81 90 0.0 1.7 0.00 0.00 0.00 60 1009.1
20260508205931 80 284 0.0 1.7 0.00 0.00 0.00 61 1009.0
20260508204922 80 257 0.0 1.7 0.00 0.00 0.00 60 1009.3
20260508203917 81 261 0.0 1.7 0.00 0.00 0.00 59 1009.1
20260508202909 80 259 0.9 2.6 0.00 0.00 0.00 58 1008.9
20260508201917 81 268 0.9 3.5 0.00 0.00 0.00 57 1009.2
20260508200912 80 286 0.9 2.6 0.00 0.00 0.00 57 1009.6
20260508195902 82 263 0.0 1.7 0.00 0.00 0.00 56 1009.8
20260508194914 80 261 0.0 2.6 0.00 0.00 0.00 57 1009.9
20260508193855 80 277 0.0 2.6 0.00 0.00 0.00 56 1010.1
20260508192858 80 123 0.0 2.6 0.00 0.00 0.00 56 1010.1
20260508191902 80 157 0.9 2.6 0.00 0.00 0.00 56 1010.2
20260508190912 79 264 1.7 2.6 0.00 0.00 0.00 57 1010.4
20260508190437 79 246 0.9 2.6 0.00 0.00 0.00 57 1010.5
20260508190001 79 258 1.7 2.6 0.00 0.00 0.00 57 1010.6
20260508185412 79 284 0.9 2.6 0.00 0.00 0.00 57 1010.5
20260508184421 79 238 0.9 3.5 0.00 0.00 0.00 57 1010.6
20260508183357 79 228 0.0 1.7 0.00 0.00 0.00 57 1010.7
20260508181911 79 263 0.0 1.7 0.00 0.00 0.00 59 1011.2
20260508180921 78 275 0.0 2.6 0.00 0.00 0.00 60 1011.4
20260508175918 77 272 0.0 0.9 0.00 0.00 0.00 60 1011.4
20260508174915 78 119 0.0 2.6 0.00 0.00 0.00 62 1011.7
20260508174444 78 199 0.9 2.6 0.00 0.00 0.00 59 1011.8